📊 Raw Sensor Data
Showing records 32076 to 32100 of 84,667 total
| ID | Distance (ft) | Battery V | Battery A | Int Temp (°F) | Int Humid (%) | Ext Temp (°F) | Solar V | RSSI | SNR | Time Stamp |
|---|---|---|---|---|---|---|---|---|---|---|
| 52604 | 15.0 | 3.96 | -5 | 56 | 44 | 57 | 0.10 | -71 | 8 | 09/21/2025 04:30 AM |
| 52603 | 15.0 | 3.96 | -5 | 57 | 44 | 58 | 0.10 | -72 | 8 | 09/21/2025 04:15 AM |
| 52602 | 15.0 | 3.96 | -5 | 57 | 44 | 59 | 0.00 | -72 | 8 | 09/21/2025 04:00 AM |
| 52601 | 15.0 | 3.96 | -5 | 57 | 44 | 58 | 0.00 | -73 | 8 | 09/21/2025 03:45 AM |
| 52600 | 15.0 | 4.02 | -5 | 57 | 44 | 59 | 0.00 | -71 | 8 | 09/21/2025 03:30 AM |
| 52599 | 15.0 | 3.97 | -5 | 58 | 44 | 59 | 0.00 | -71 | 8 | 09/21/2025 03:15 AM |
| 52598 | 15.0 | 3.97 | -5 | 57 | 44 | 59 | 0.00 | -71 | 8 | 09/21/2025 03:00 AM |
| 52597 | 15.0 | 3.97 | -5 | 58 | 44 | 60 | 0.00 | -71 | 8 | 09/21/2025 02:45 AM |
| 52596 | 15.0 | 3.97 | -5 | 58 | 44 | 59 | 0.00 | -70 | 8 | 09/21/2025 02:30 AM |
| 52595 | 15.0 | 3.97 | -5 | 58 | 44 | 59 | 0.00 | -73 | 8 | 09/21/2025 02:15 AM |
| 52594 | 15.0 | 3.97 | -5 | 58 | 45 | 60 | 0.00 | -71 | 8 | 09/21/2025 02:00 AM |
| 52593 | 15.0 | 3.97 | -5 | 58 | 45 | 59 | 0.00 | -71 | 7 | 09/21/2025 01:45 AM |
| 52592 | 15.0 | 4.03 | -5 | 58 | 45 | 59 | 0.00 | -72 | 8 | 09/21/2025 01:30 AM |
| 52591 | 15.0 | 3.97 | -5 | 58 | 45 | 60 | 0.00 | -71 | 8 | 09/21/2025 01:15 AM |
| 52590 | 15.0 | 3.97 | -5 | 59 | 45 | 60 | 0.00 | -71 | 8 | 09/21/2025 01:00 AM |
| 52589 | 15.0 | 3.97 | -5 | 59 | 45 | 59 | 0.00 | -71 | 8 | 09/21/2025 12:45 AM |
| 52588 | 15.0 | 3.97 | -5 | 60 | 46 | 60 | 0.10 | -70 | 8 | 09/21/2025 12:30 AM |
| 52587 | 15.0 | 4.03 | -5 | 61 | 46 | 61 | 0.00 | -71 | 8 | 09/21/2025 12:15 AM |
| 52586 | 15.0 | 4.03 | -5 | 62 | 45 | 61 | 0.00 | -71 | 7 | 09/21/2025 12:00 AM |
| 52585 | 15.0 | 4.03 | -5 | 63 | 45 | 64 | 0.00 | -73 | 8 | 09/20/2025 11:45 PM |
| 52584 | 15.0 | 4.03 | -5 | 63 | 45 | 65 | 0.00 | -72 | 7 | 09/20/2025 11:15 PM |
| 52583 | 15.0 | 4.03 | -5 | 64 | 45 | 65 | 0.00 | -71 | 7 | 09/20/2025 11:00 PM |
| 52582 | 15.0 | 3.98 | -31 | 64 | 46 | 65 | 0.00 | -71 | 8 | 09/20/2025 10:45 PM |
| 52581 | 15.0 | 4.04 | -5 | 65 | 46 | 65 | 0.10 | -71 | 7 | 09/20/2025 10:15 PM |
| 52580 | 15.0 | 4.04 | -5 | 65 | 46 | 66 | 0.10 | -70 | 8 | 09/20/2025 10:00 PM |